• In Schweiz
  • Länderverzeichnis
  • Für 7 Tage
  • Wassertemperatur
  • Satellitenkarten
  • Wetterkarte
  • Widgets
  • user-avatar
    Anmelden

    Stündliche Wetter Velemya

    Heute, 18 Juli, Mittwoch

    Zeit Temperatur Niederschläge Wind Luftdruck Luftfeuchtigkeit
    00:00 +19°C° 0 mm 4 m/S 734 mmHg 94%
    01:00 +19°C° 0 mm 4 m/S 734 mmHg 95%
    02:00 +19°C° 0 mm 4 m/S 734 mmHg 95%
    03:00 +19°C° 0 mm 5 m/S 734 mmHg 96%
    04:00 +19°C° 0,1 mm 5 m/S 734 mmHg 95%
    05:00 +19°C° 0,1 mm 5 m/S 734 mmHg 95%
    06:00 +19°C° 0,1 mm 6 m/S 734 mmHg 95%
    07:00 +19°C° 0,2 mm 6 m/S 733 mmHg 94%
    08:00 +19°C° 0,2 mm 5 m/S 733 mmHg 94%
    09:00 +20°C° 0,2 mm 5 m/S 733 mmHg 93%
    10:00 +20°C° 0,4 mm 6 m/S 733 mmHg 91%
    11:00 +21°C° 0,4 mm 6 m/S 733 mmHg 89%
    12:00 +22°C° 0,4 mm 6 m/S 733 mmHg 87%
    13:00 +22°C° 0,5 mm 6 m/S 733 mmHg 87%
    14:00 +22°C° 0,5 mm 6 m/S 733 mmHg 86%
    15:00 +22°C° 0,5 mm 6 m/S 732 mmHg 86%
    16:00 +22°C° 0,6 mm 6 m/S 732 mmHg 86%
    17:00 +22°C° 0,6 mm 5 m/S 732 mmHg 87%
    18:00 +22°C° 0,6 mm 5 m/S 732 mmHg 87%
    19:00 +21°C° 0,4 mm 5 m/S 732 mmHg 89%
    20:00 +21°C° 0,4 mm 4 m/S 732 mmHg 92%
    21:00 +20°C° 0,4 mm 4 m/S 733 mmHg 94%
    22:00 +20°C° 0,1 mm 4 m/S 733 mmHg 95%
    23:00 +19°C° 0,1 mm 4 m/S 733 mmHg 96%

    Morgen, 19 Juli, Donnerstag

    Zeit Temperatur Niederschläge Wind Luftdruck Luftfeuchtigkeit
    00:00 +19°C° 0,1 mm 4 m/S 733 mmHg 96%
    01:00 +19°C° 0,3 mm 4 m/S 733 mmHg 97%
    02:00 +19°C° 0,3 mm 4 m/S 733 mmHg 97%
    03:00 +19°C° 0,3 mm 4 m/S 733 mmHg 97%
    04:00 +19°C° 0,6 mm 4 m/S 733 mmHg 97%
    05:00 +19°C° 0,6 mm 4 m/S 733 mmHg 97%
    06:00 +19°C° 0,6 mm 4 m/S 733 mmHg 97%
    07:00 +20°C° 0,2 mm 4 m/S 733 mmHg 96%
    08:00 +20°C° 0,2 mm 4 m/S 734 mmHg 95%
    09:00 +20°C° 0,2 mm 4 m/S 734 mmHg 94%
    10:00 +21°C° 1 mm 4 m/S 734 mmHg 90%
    11:00 +22°C° 1 mm 4 m/S 734 mmHg 87%
    12:00 +23°C° 1 mm 4 m/S 735 mmHg 83%
    13:00 +23°C° 2,2 mm 4 m/S 734 mmHg 85%
    14:00 +23°C° 2,2 mm 4 m/S 734 mmHg 86%
    15:00 +23°C° 2,2 mm 4 m/S 734 mmHg 87%
    16:00 +23°C° 1 mm 4 m/S 734 mmHg 87%
    17:00 +23°C° 1 mm 4 m/S 735 mmHg 88%
    18:00 +23°C° 1 mm 4 m/S 735 mmHg 88%
    19:00 +22°C° 1,3 mm 4 m/S 735 mmHg 89%
    20:00 +21°C° 1,3 mm 4 m/S 735 mmHg 91%
    21:00 +21°C° 1,3 mm 4 m/S 735 mmHg 92%
    22:00 +20°C° 0,2 mm 4 m/S 735 mmHg 93%
    23:00 +20°C° 0,2 mm 3 m/S 735 mmHg 94%

    übermorgen, 20 Juli, Freitag

    Zeit Temperatur Niederschläge Wind Luftdruck Luftfeuchtigkeit
    00:00 +20°C° 0,2 mm 3 m/S 736 mmHg 95%
    01:00 +19°C° 0 mm 3 m/S 736 mmHg 95%
    02:00 +19°C° 0 mm 3 m/S 736 mmHg 95%
    03:00 +19°C° 0 mm 3 m/S 736 mmHg 96%
    04:00 +19°C° 0 mm 3 m/S 736 mmHg 95%
    05:00 +19°C° 0 mm 3 m/S 737 mmHg 94%
    06:00 +19°C° 0 mm 3 m/S 737 mmHg 93%
    07:00 +21°C° 0 mm 4 m/S 737 mmHg 89%
    08:00 +22°C° 0 mm 4 m/S 737 mmHg 85%
    09:00 +25°C° 0 mm 4 m/S 738 mmHg 81%
    10:00 +26°C° 0,5 mm 4 m/S 738 mmHg 76%
    11:00 +27°C° 0,5 mm 4 m/S 738 mmHg 71%
    12:00 +28°C° 0,5 mm 4 m/S 738 mmHg 65%
    13:00 +28°C° 0,4 mm 4 m/S 738 mmHg 65%
    14:00 +28°C° 0,4 mm 4 m/S 738 mmHg 65%
    15:00 +29°C° 0,4 mm 3 m/S 738 mmHg 65%
    16:00 +28°C° 0,1 mm 3 m/S 738 mmHg 68%
    17:00 +28°C° 0,1 mm 3 m/S 738 mmHg 71%
    18:00 +28°C° 0,1 mm 2 m/S 738 mmHg 74%
    19:00 +26°C° 0,1 mm 2 m/S 738 mmHg 78%
    20:00 +25°C° 0,1 mm 2 m/S 738 mmHg 82%
    21:00 +23°C° 0,1 mm 2 m/S 738 mmHg 86%
    22:00 +23°C° 0 mm 2 m/S 738 mmHg 88%
    23:00 +21°C° 0 mm 2 m/S 738 mmHg 90%

    21 Juli, Samstag

    Zeit Temperatur Niederschläge Wind Luftdruck Luftfeuchtigkeit
    00:00 +20°C° 0 mm 2 m/S 738 mmHg 92%
    01:00 +20°C° 0,5 mm 2 m/S 738 mmHg 92%
    02:00 +20°C° 0,5 mm 2 m/S 738 mmHg 93%
    03:00 +21°C° 0,5 mm 1 m/S 738 mmHg 93%
    04:00 +20°C° 0,1 mm 2 m/S 738 mmHg 93%
    05:00 +20°C° 0,1 mm 2 m/S 739 mmHg 93%
    06:00 +20°C° 0,1 mm 2 m/S 739 mmHg 93%
    07:00 +23°C° 0 mm 2 m/S 739 mmHg 89%
    08:00 +24°C° 0 mm 2 m/S 739 mmHg 84%
    09:00 +26°C° 0 mm 3 m/S 739 mmHg 80%
    10:00 +27°C° 0,3 mm 3 m/S 739 mmHg 75%
    11:00 +28°C° 0,3 mm 3 m/S 739 mmHg 71%
    12:00 +29°C° 0,3 mm 3 m/S 739 mmHg 66%
    13:00 +29°C° 0,4 mm 3 m/S 739 mmHg 66%
    14:00 +29°C° 0,4 mm 3 m/S 739 mmHg 66%
    15:00 +29°C° 0,4 mm 3 m/S 739 mmHg 65%
    16:00 +29°C° 0,3 mm 3 m/S 739 mmHg 69%
    17:00 +28°C° 0,3 mm 3 m/S 739 mmHg 72%
    18:00 +28°C° 0,3 mm 3 m/S 739 mmHg 76%
    19:00 +26°C° 0,1 mm 2 m/S 739 mmHg 80%
    20:00 +25°C° 0,1 mm 2 m/S 739 mmHg 83%
    21:00 +24°C° 0,1 mm 2 m/S 739 mmHg 87%
    22:00 +23°C° 0,1 mm 2 m/S 739 mmHg 88%
    23:00 +21°C° 0,1 mm 2 m/S 739 mmHg 90%

    22 Juli, Sonntag

    Zeit Temperatur Niederschläge Wind Luftdruck Luftfeuchtigkeit
    00:00 +21°C° 0,1 mm 2 m/S 739 mmHg 91%
    01:00 +21°C° 0,4 mm 2 m/S 739 mmHg 91%
    02:00 +20°C° 0,4 mm 2 m/S 739 mmHg 92%
    03:00 +20°C° 0,4 mm 2 m/S 738 mmHg 93%
    04:00 +20°C° 0 mm 2 m/S 739 mmHg 92%
    05:00 +20°C° 0 mm 2 m/S 739 mmHg 92%
    06:00 +21°C° 0 mm 2 m/S 739 mmHg 92%
    07:00 +23°C° 0,1 mm 2 m/S 739 mmHg 88%
    08:00 +24°C° 0,1 mm 2 m/S 739 mmHg 84%
    09:00 +26°C° 0,1 mm 3 m/S 739 mmHg 81%
    10:00 +27°C° 0,8 mm 3 m/S 739 mmHg 76%
    11:00 +28°C° 0,8 mm 3 m/S 738 mmHg 71%
    12:00 +29°C° 0,8 mm 3 m/S 738 mmHg 65%
    13:00 +29°C° 0,8 mm 3 m/S 738 mmHg 65%
    14:00 +29°C° 0,8 mm 3 m/S 738 mmHg 65%
    15:00 +29°C° 0,8 mm 2 m/S 738 mmHg 65%
    16:00 +29°C° 0,4 mm 3 m/S 738 mmHg 69%
    17:00 +28°C° 0,4 mm 3 m/S 738 mmHg 73%
    18:00 +28°C° 0,4 mm 3 m/S 738 mmHg 76%
    19:00 +27°C° 0,2 mm 3 m/S 738 mmHg 80%
    20:00 +25°C° 0,2 mm 3 m/S 738 mmHg 84%
    21:00 +24°C° 0,2 mm 2 m/S 738 mmHg 88%
    22:00 +22°C° 0,1 mm 3 m/S 738 mmHg 89%
    23:00 +22°C° 0,1 mm 3 m/S 738 mmHg 90%

    23 Juli, Montag

    Zeit Temperatur Niederschläge Wind Luftdruck Luftfeuchtigkeit
    00:00 +21°C° 0,1 mm 3 m/S 738 mmHg 92%
    01:00 +21°C° 0,7 mm 3 m/S 738 mmHg 92%
    02:00 +20°C° 0,7 mm 2 m/S 738 mmHg 93%
    03:00 +20°C° 0,7 mm 2 m/S 738 mmHg 93%
    04:00 +20°C° 0,5 mm 2 m/S 738 mmHg 93%
    05:00 +20°C° 0,5 mm 2 m/S 738 mmHg 93%
    06:00 +21°C° 0,5 mm 2 m/S 738 mmHg 93%
    07:00 +22°C° 0,4 mm 3 m/S 738 mmHg 89%
    08:00 +24°C° 0,4 mm 3 m/S 738 mmHg 86%
    09:00 +26°C° 0,4 mm 3 m/S 738 mmHg 82%
    10:00 +27°C° 1,2 mm 3 m/S 738 mmHg 77%
    11:00 +28°C° 1,2 mm 4 m/S 738 mmHg 73%
    12:00 +29°C° 1,2 mm 4 m/S 738 mmHg 69%
    13:00 +28°C° 1,2 mm 4 m/S 738 mmHg 71%
    14:00 +28°C° 1,2 mm 3 m/S 738 mmHg 73%
    15:00 +28°C° 1,2 mm 3 m/S 738 mmHg 75%
    16:00 +28°C° 0,7 mm 3 m/S 738 mmHg 77%
    17:00 +27°C° 0,7 mm 3 m/S 738 mmHg 79%
    18:00 +27°C° 0,7 mm 3 m/S 738 mmHg 81%
    19:00 +26°C° 1,5 mm 3 m/S 738 mmHg 83%
    20:00 +25°C° 1,5 mm 3 m/S 738 mmHg 85%
    21:00 +24°C° 1,5 mm 3 m/S 738 mmHg 87%
    22:00 +22°C° 0,5 mm 3 m/S 739 mmHg 89%
    23:00 +22°C° 0,5 mm 3 m/S 739 mmHg 91%
    Mehr zeigen